Location: Alvediston
(51.0078°N, 2.0364°W)
Time: 20:16:21
(UTC+00:00)

Cosmos 2263 Rocket - Pass Details

Date: 27 February 2020
Orbit: 822 x 850 km, 71.0° (Epoch: 03 April)

Event Time Altitude Azimuth Distance (km) Brightness Sun altitude
Rises 20:34:34 0° 331° (NNW) 3,415 6.1 -27.1°
Reaches altitude 10° 20:37:21 10° 343° (NNW) 2,481 5.1 -27.5°
Enters shadow 20:41:21 28° 25° (NNE) 1,551 3.5 -28.1°
